Location: Wieruszow
(51.2830°N, 18.1670°E)
Time: 17:31:28
(UTC+02:00)

ISS - Visible Passes

Search period start: 19 September 2018 00:00
Search period end: 29 September 2018 00:00
Orbit: 402 x 408 km, 51.6° (Epoch: 20 September)

Date Brightness Start Highest point End Pass type
(mag) Time Alt. Az. Time Alt. Az. Time Alt. Az.
22 Sep -1.7 20:27:33 10° SSW 20:28:33 15° S 20:28:33 15° S visible
23 Sep -1.8 19:36:36 10° S 19:38:19 14° SE 19:39:11 12° ESE visible
23 Sep -1.4 21:11:02 10° SW 21:11:54 17° SW 21:11:54 17° SW visible
24 Sep -3.1 20:19:17 10° SW 20:22:19 35° SSE 20:22:19 35° SSE visible
25 Sep -2.5 19:27:43 10° SSW 19:30:26 24° SSE 19:32:36 13° E visible
25 Sep -2.3 21:03:20 10° WSW 21:05:16 32° WSW 21:05:16 32° WSW visible
26 Sep -3.7 20:11:22 10° WSW 20:14:37 58° SSE 20:15:25 42° ESE visible
26 Sep -0.6 21:47:47 10° W 21:48:06 12° W 21:48:06 12° W visible
27 Sep -3.2 19:19:31 10° SW 19:22:38 41° SSE 19:25:28 12° E visible
27 Sep -2.9 20:55:42 10° W 20:58:08 46° W 20:58:08 46° W visible
28 Sep -3.9 20:03:38 10° WSW 20:06:56 82° SSE 20:08:07 37° E visible
28 Sep -0.8 21:40:10 10° W 21:40:46 15° W 21:40:46 15° W visible
